Location: Geyikbay?r?
(36.8756°N, 30.4583°E)
Time: 16:19:41
(UTC+00:00)

ATLAS 5 CENTAUR R/B - Pass Details

Date: 22 April 2026
Orbit: 360 x 1064 km, 63.3° (Epoch: 14 May)

Event Time Altitude Azimuth Distance (km) Brightness Sun altitude
Rises 19:30:56 0° 348° (NNW) 2,706 5.7 -30.0°
Reaches altitude 10° 19:34:05 10° 17° (NNE) 1,964 4.5 -30.4°
Enters shadow 19:34:57 12° 28° (NNE) 1,868 4.2 -30.5°
